This demonstration page uses our WeatherBlox Daily Observations layout. Learn more.

Left ArrowRight Arrow

40.92945, -100.16068

Hourly Observations for February 4, 2015

Temp ( °F °C ) Dew Point ( °F °C ) Humidity (%) Winds ( mph kmh ) Pressure ( in mb ) Visibility ( mi km ) Precip ( " mm )
12:15 am 00:15 Partly Cloudy 32 0.1 29 -1.5 89 89 ENE 8 13 30.15 1021 10 16 N/A
12:35 am 00:35 Mostly Cloudy 32 0 29 -1.9 87 87 ENE 8 13 30.15 1021 10 16 N/A
12:55 am 00:55 Cloudy 32 -0.1 28 -2.3 85 85 NE 12 19 30.15 1021 10 16 N/A
1:15 am 01:15 Cloudy 31 -0.3 28 -2.5 85 85 NE 13 20 30.15 1021 10 16 N/A
1:35 am 01:35 Cloudy 31 -0.6 27 -3 84 84 NE 12 19 30.15 1021 10 16 N/A
1:55 am 01:55 Cloudy with Light Snow 30 -1 26 -3.3 85 85 NE 15 24 30.15 1021 10 16 N/A
2:15 am 02:15 Cloudy with Light Snow 30 -1.2 26 -3.2 86 86 NNE 12 19 30.15 1021 7 11 N/A
2:35 am 02:35 Cloudy 29 -1.5 26 -3.3 88 88 NNE 13 20 30.15 1021 10 16 N/A
2:55 am 02:55 Cloudy with Light Snow 29 -1.7 26 -3.4 88 88 NE 13 20 30.18 1022 5 8 N/A
3:15 am 03:15 Cloudy with Light Snow 28 -2.1 26 -3.6 90 90 NE 17 28 30.18 1022 7 11 N/A
3:35 am 03:35 Cloudy with Mist and Fog 27 -2.6 25 -4.1 90 90 NNE 17 28 30.18 1022 5 8 N/A
3:55 am 03:55 Cloudy 26 -3.4 23 -5.2 88 88 NNE 18 30 30.21 1023 10 16 N/A
4:15 am 04:15 Windy with Snow Likely 24 -4.4 21 -6.2 87 87 N 21 33 30.24 1024 5 8 N/A
4:35 am 04:35 Windy with Snow Likely 23 -4.8 20 -6.6 87 87 N 21 33 30.27 1025 3 4 N/A
4:55 am 04:55 Windy with Snow Likely 22 -5.8 18 -7.8 86 86 N 23 37 30.27 1025 3 5 N/A
5:15 am 05:15 Cloudy with Light Snow 21 -6.2 17 -8.1 87 87 NNE 16 26 30.30 1026 2 3 N/A
5:35 am 05:35 Windy with Snow Likely 20 -6.7 17 -8.5 87 87 N 20 31 30.36 1028 2 3 N/A
5:55 am 05:55 Cloudy with Snow 19 -7.1 16 -8.7 89 89 N 20 31 30.33 1027 1 1 N/A
6:15 am 06:15 Cloudy with Snow 19 -7.5 16 -8.9 90 90 NNE 21 33 30.36 1028 1 1 0.01 0.25
6:35 am 06:35 Cloudy with Snow 18 -7.7 15 -9.3 88 88 N 16 26 30.39 1029 1 1 0.01 0.25
6:55 am 06:55 Cloudy with Snow 18 -7.7 15 -9.2 89 89 NNE 12 19 30.39 1029 1 2 0.02 0.51
7:15 am 07:15 Cloudy with Snow 17 -8.2 14 -9.9 88 88 N 17 28 30.42 1030 1 1 N/A
7:35 am 07:35 Cloudy with Snow 17 -8.5 14 -10.1 88 88 N 18 30 30.45 1031 1 2 N/A
7:55 am 07:55 Cloudy with Snow 16 -8.7 13 -10.5 87 87 N 20 31 30.48 1032 1 1 0.01 0.25
8:15 am 08:15 Cloudy with Light Snow 16 -8.7 13 -10.5 87 87 N 15 24 30.50 1033 1 1 N/A
8:35 am 08:35 Cloudy with Light Snow 16 -8.7 13 -10.7 86 86 N 18 30 30.50 1033 2 3 N/A
8:55 am 08:55 Cloudy with Light Snow 16 -8.9 12 -11 85 85 N 16 26 30.50 1033 3 5 0.00 0.00
9:15 am 09:15 Cloudy 17 -8.6 12 -11.1 82 82 N 16 26 30.53 1034 10 16 N/A
9:35 am 09:35 Cloudy 17 -8.6 11 -11.5 80 80 N 18 30 30.56 1035 7 11 N/A
9:55 am 09:55 Cloudy 16 -8.7 11 -11.8 79 79 N 20 31 30.56 1035 7 11 N/A
10:15 am 10:15 Cloudy 17 -8.5 11 -11.6 79 79 N 23 37 30.56 1035 10 16 N/A
10:35 am 10:35 Mostly Cloudy 17 -8.5 11 -11.7 78 78 N 15 24 30.56 1035 10 16 N/A
10:55 am 10:55 Mostly Cloudy 17 -8.5 11 -11.6 79 79 N 14 22 30.59 1036 10 16 N/A
11:15 am 11:15 Cloudy 17 -8.5 11 -11.9 77 77 N 15 24 30.59 1036 10 16 N/A
11:35 am 11:35 Cloudy 17 -8.3 11 -11.9 76 76 N 14 22 30.59 1036 10 16 N/A
11:55 am 11:55 Cloudy 17 -8.2 10 -12.2 73 73 N 20 31 30.59 1036 10 16 0.00 0.00
12:15 pm 12:15 Cloudy 17 -8.2 10 -12.1 74 74 N 16 26 30.59 1036 10 16 N/A
12:35 pm 12:35 Mostly Cloudy 17 -8.1 9 -12.7 70 70 N 14 22 30.59 1036 10 16 N/A
12:55 pm 12:55 Partly Cloudy 17 -8.4 8 -13.1 69 69 N 14 22 30.59 1036 10 16 N/A
1:15 pm 13:15 Partly Cloudy 17 -8.5 8 -13.1 70 70 N 13 20 30.59 1036 10 16 N/A
1:35 pm 13:35 Sunny 17 -8.5 8 -13.4 68 68 N 13 20 30.59 1036 10 16 N/A
1:55 pm 13:55 Sunny 17 -8.3 8 -13.1 69 69 N 12 19 30.59 1036 10 16 N/A
2:15 pm 14:15 Sunny 17 -8.4 7 -13.7 66 66 NNW 14 22 30.59 1036 10 16 N/A
2:35 pm 14:35 Sunny 18 -8 8 -13.6 64 64 NNW 13 20 30.59 1036 10 16 N/A
2:55 pm 14:55 Sunny 17 -8.5 7 -14 65 65 N 10 17 30.59 1036 10 16 N/A
3:15 pm 15:15 Sunny 17 -8.4 8 -13.6 66 66 N 8 13 30.59 1036 10 16 N/A
3:35 pm 15:35 Sunny 18 -8 8 -13.5 65 65 N 7 11 30.59 1036 10 16 N/A
3:55 pm 15:55 Sunny 17 -8.2 8 -13.4 67 67 NNW 10 17 30.59 1036 10 16 N/A
4:15 pm 16:15 Sunny 17 -8.4 6 -14.5 62 62 N 8 13 30.59 1036 10 16 N/A
4:35 pm 16:35 Sunny 15 -9.7 5 -14.8 67 67 NW 9 15 30.59 1036 10 16 N/A
4:55 pm 16:55 Sunny 13 -10.7 4 -15.5 68 68 N 7 11 30.62 1037 10 16 N/A
5:15 pm 17:15 Sunny 10 -12.1 2 -16.5 70 70 NNW 5 7 30.62 1037 10 16 N/A
5:35 pm 17:35 Sunny 9 -13 1 -17 72 72 NNW 7 11 30.65 1038 10 16 N/A
6:15 pm 18:15 Clear 6 -14.5 -1 -18.2 74 74 WNW 6 9 30.68 1039 10 16 N/A
6:35 pm 18:35 Clear 6 -14.7 0 -17.9 77 77 WNW 3 6 30.68 1039 10 16 N/A
6:55 pm 18:55 Clear 4 -15.5 -1 -18.3 79 79 Calm 30.68 1039 10 16 N/A
7:15 pm 19:15 Clear 3 -16.2 -2 -18.8 81 81 Calm 30.71 1040 10 16 N/A
7:35 pm 19:35 Clear 3 -16.1 -1 -18.5 82 82 Calm 30.71 1040 10 16 N/A
7:55 pm 19:55 Clear 4 -15.7 -1 -18.1 82 82 W 5 7 30.71 1040 10 16 N/A
8:15 pm 20:15 Clear 2 -16.4 -1 -18.5 84 84 W 3 6 30.71 1040 10 16 N/A
8:35 pm 20:35 Clear 1 -17.4 -4 -19.8 82 82 Calm 30.68 1039 10 16 N/A
8:55 pm 20:55 Clear 1 -17.4 -3 -19.3 85 85 Calm 30.68 1039 10 16 N/A
9:15 pm 21:15 Clear -2 -18.9 -5 -20.7 86 86 Calm 30.71 1040 10 16 N/A
9:35 pm 21:35 Clear 0 -18 -3 -19.6 87 87 Calm 30.68 1039 10 16 N/A
9:55 pm 21:55 Clear -3 -19.2 -6 -21 86 86 Calm 30.71 1040 10 16 N/A
10:15 pm 22:15 Clear -3 -19.4 -7 -21.4 84 84 Calm 30.71 1040 7 11 N/A
10:35 pm 22:35 Partly Cloudy -3 -19.7 -7 -21.7 84 84 Calm 30.71 1040 10 16 N/A
10:55 pm 22:55 Mostly Cloudy -5 -20.3 -8 -22.4 83 83 Calm 30.71 1040 10 16 N/A
11:15 pm 23:15 Cloudy -2 -19 -6 -21.1 84 84 Calm 30.71 1040 10 16 N/A
11:35 pm 23:35 Partly Cloudy -3 -19.4 -7 -21.6 83 83 Calm 30.71 1040 10 16 N/A
11:55 pm 23:55 Clear -3 -19.6 -7 -21.9 82 82 Calm 30.71 1040 10 16 N/A

Powered by AerisWeather